This is the latest recevied weather packets stored in our database for station/object VE8SKI. If no packets are shown the sender has not sent any weather packets the latest 10 day(s).
| Time | Temp. | Humidity | Pressure | Rain* | Wind** | Luminosity | Snow |
|---|---|---|---|---|---|---|---|
| 1778072017 | 2.78° C | 52% | 1015.2 hPa | 0 mm | 4.92 m/s, 225° | - | - |
| 1778071718 | 2.78° C | 52% | 1015.4 hPa | 0 mm | 4.47 m/s, 255° | - | - |
| 1778071418 | 2.78° C | 53% | 1015.4 hPa | 0 mm | 3.58 m/s, 222° | - | - |
| 1778071119 | 2.78° C | 53% | 1015.5 hPa | 0 mm | 5.36 m/s, 211° | - | - |
| 1778070819 | 2.78° C | 53% | 1015.5 hPa | 0 mm | 3.58 m/s, 212° | - | - |
| 1778070520 | 2.78° C | 53% | 1015.5 hPa | 0 mm | 4.92 m/s, 256° | - | - |
| 1778070217 | 2.78° C | 53% | 1015.6 hPa | 0 mm | 3.13 m/s, 212° | - | - |
| 1778069918 | 2.78° C | 53% | 1015.6 hPa | 0 mm | 0 m/s | - | - |
| 1778069618 | 2.78° C | 54% | 1015.7 hPa | 0 mm | 1.79 m/s, 359° | - | - |
| 1778069319 | 2.78° C | 53% | 1015.7 hPa | 0 mm | 4.02 m/s, 239° | - | - |
| 1778069019 | 2.78° C | 54% | 1015.8 hPa | 0 mm | 3.58 m/s, 248° | - | - |
| 1778068720 | 2.78° C | 53% | 1015.8 hPa | 0 mm | 3.58 m/s, 224° | - | - |
| 1778068417 | 2.78° C | 53% | 1015.8 hPa | 0 mm | 3.58 m/s, 240° | - | - |
| 1778068127 | 2.78° C | 53% | 1015.9 hPa | 0 mm | 4.47 m/s, 193° | - | - |
| 1778067818 | 2.78° C | 54% | 1016 hPa | 0 mm | 4.92 m/s, 245° | - | - |
| 1778067518 | 2.78° C | 54% | 1016 hPa | 0 mm | 4.02 m/s, 204° | - | - |
| 1778067219 | 2.78° C | 54% | 1016.1 hPa | 0 mm | 3.58 m/s, 180° | - | - |
| 1778066919 | 2.78° C | 54% | 1016.1 hPa | 0 mm | 3.58 m/s, 248° | - | - |
| 1778066617 | 2.78° C | 55% | 1016.2 hPa | 0 mm | 4.02 m/s, 195° | - | - |
| 1778066317 | 2.78° C | 55% | 1016.1 hPa | 0 mm | 4.47 m/s, 207° | - | - |
| 1778066018 | 2.22° C | 56% | 1016.1 hPa | 0 mm | 4.47 m/s, 181° | - | - |
| 1778065718 | 2.78° C | 56% | 1016.2 hPa | 0 mm | 3.58 m/s, 238° | - | - |
| 1778065419 | 2.78° C | 56% | 1016.2 hPa | 0 mm | 4.02 m/s, 198° | - | - |
| 1778065119 | 2.78° C | 57% | 1016.3 hPa | 0 mm | 4.02 m/s, 166° | - | - |
| 1778064817 | 2.78° C | 56% | 1016.3 hPa | 0 mm | 3.58 m/s, 222° | - | - |
* Rain latest hour (hover to see other rain measurements)
** Current wind speed in m/s (hover to see current wind gust speed)